Cloud_Cover
100 53 100 45 100 100 90 2 0 7 100 100 43 2 10 98 70 82 100 100 100 100 100 100 100 95 97 89 27 80 60 50 64 0 0 0 0 0 0 0 0 0 0 5 5 0 0
100 100 100 100 83 100 89 82 0 0 13 59 5 21 4 24 6 67 84 100 100 100 100 100 100 100 99 100 100 98 70 98 96 1 5 0 0 0 0 0 0 0 0 5 5 0 0
96 20 33 100 100 100 100 100 5 0 0 0 0 4 18 4 8 5 97 92 100 100 100 100 100 99 100 100 100 91 99 69 7 5 48 0 0 0 0 0 0 0 0 5 5 0 0
100 100 85 61 100 78 71 100 50 2 0 0 0 0 37 7 4 5 8 46 8 99 100 100 100 100 100 100 100 100 100 86 35 90 84 0 0 0 0 0 0 0 0 0 0 0 0
100 71 56 97 100 100 100 100 8 3 0 0 0 5 0 4 5 5 44 74 44 13 30 31 55 100 100 100 100 100 100 97 100 100 100 0 0 0 0 1 0 0 0 0 0 0 0
100 60 100 95 100 100 100 85 100 5 0 0 0 0 0 0 4 4 21 100 50 68 32 100 89 100 90 100 100 100 100 100 100 100 100 4 0 0 0 2 4 0 0 0 0 0 0
100 99 78 58 100 100 100 100 74 72 1 0 0 0 0 0 1 5 58 100 75 5 5 16 52 95 91 100 100 100 100 100 5 60 100 86 5 0 5 5 1 0 0 0 0 0 0
100 100 100 0 22 54 100 100 100 85 60 0 0 0 0 0 0 0 21 12 15 87 100 5 71 75 100 100 100 100 100 100 5 84 100 100 88 5 5 5 5 5 4 5 0 0 0
100 100 100 36 0 9 66 99 100 90 49 3 0 0 0 0 0 1 0 2 5 8 4 4 18 100 100 100 100 100 100 91 5 98 100 100 100 65 0 0 5 5 5 4 0 0 0
100 100 100 85 2 0 5 1 100 100 72 29 0 0 0 0 0 0 0 0 0 4 3 5 81 89 100 100 100 100 99 96 4 41 100 95 100 100 5 0 4 29 5 5 5 5 4
100 100 4 10 94 19 0 4 60 91 80 46 26 0 0 0 0 0 0 0 0 0 1 3 1 63 73 98 100 100 100 45 100 0 22 92 60 87 64 5 4 3 0 4 0 5 5
84 0 1 40 97 33 1 0 25 94 94 100 41 5 0 0 0 0 0 0 0 4 2 3 0 2 74 93 48 79 86 24 66 74 10 14 5 4 5 8 57 8 5 3 0 4 5
79 4 5 84 64 11 5 0 6 6 5 97 100 60 10 0 0 0 0 0 3 5 0 0 0 0 0 6 6 54 25 6 0 0 2 5 5 0 0 0 0 0 0 13 4 6 5
12 5 5 74 100 6 51 0 0 29 5 37 100 100 100 6 1 0 0 0 0 1 0 0 0 0 0 0 0 2 2 0 0 0 0 2 0 0 0 0 0 0 0 5 0 4 5
5 5 7 28 72 64 5 5 3 17 0 5 100 90 80 100 63 4 0 1 3 0 0 0 0 0 0 0 0 0 0 0 0 0 0 0 0 0 0 0 0 0 0 0 3 3 5
82 20 13 50 100 100 98 40 5 5 8 5 5 92 98 100 100 97 25 3 0 0 0 0 0 0 0 0 0 0 0 0 0 0 0 0 0 0 0 0 0 0 0 2 5 0 4
100 100 100 100 100 100 100 100 57 34 73 76 10 99 95 98 100 100 95 100 46 0 0 3 0 0 0 0 0 0 0 0 0 0 0 0 0 0 0 0 0 0 0 0 0 3 4
100 100 100 100 100 100 100 100 97 60 26 72 70 97 69 88 93 100 100 100 85 87 22 5 5 0 0 0 0 0 0 0 0 0 0 0 0 6 0 0 0 0 0 0 0 0 0
100 100 98 68 76 100 100 100 99 100 100 100 58 53 80 100 100 100 100 98 34 99 63 86 42 8 5 2 1 0 0 0 0 0 0 0 0 0 1 1 0 0 0 0 0 0 0
75 100 100 100 51 24 79 97 5 11 28 28 5 38 62 38 83 100 96 100 100 71 91 100 31 75 28 5 8 18 2 5 2 0 0 0 0 0 3 0 0 0 0 0 0 5 2
100 100 100 100 100 100 99 98 99 89 100 66 98 43 15 58 7 54 93 83 100 99 100 55 76 96 100 100 76 5 5 8 20 5 4 2 1 0 0 0 0 0 0 0 0 0 1
100 100 100 100 100 100 100 100 100 100 100 100 100 100 100 100 5 5 5 13 63 32 79 78 100 100 83 92 100 100 100 6 70 74 100 32 5 0 1 3 0 0 0 0 0 0 0
100 100 100 100 100 100 100 100 100 100 100 30 30 16 90 100 100 97 52 81 84 81 10 30 5 41 100 100 100 100 100 100 69 73 100 52 26 76 76 75 6 5 5 0 0 2 0
100 100 100 100 100 100 100 100 100 100 100 94 78 77 5 100 100 100 100 100 100 99 77 62 23 12 14 82 100 99 87 94 100 100 71 99 100 100 98 49 100 100 93 37 5 5 4
100 100 100 100 100 100 100 100 100 100 100 88 96 71 51 53 28 92 86 63 100 100 100 100 100 85 46 78 74 95 46 61 100 84 46 90 86 100 100 100 95 46 90 100 100 90 28
100 100 100 100 100 100 100 100 100 100 100 100 100 100 100 100 100 77 97 100 89 14 44 75 96 98 53 6 33 100 97 100 26 28 64 100 22 5 9 92 100 100 100 100 92 98 100
100 100 100 100 100 100 100 100 100 100 100 100 100 100 100 100 100 100 100 100 96 39 24 65 86 33 96 99 57 16 8 12 13 5 56 62 69 39 78 34 85 73 95 100 100 100 100
100 100 100 100 100 100 100 100 100 100 100 100 100 100 100 100 100 100 100 98 100 82 6 5 32 92 6 6 59 100 92 77 98 22 6 19 26 80 78 89 94 100 99 100 100 96 100
100 100 100 100 100 100 100 100 100 100 100 100 100 100 100 100 100 100 100 65 5 27 13 63 5 5 11 91 98 81 100 100 100 100 100 30 84 100 98 80 100 49 18 89 40 100 100